Location: Newark
(47.3150°N, 5.1150°E)
Time: 00:23:40
(UTC+00:00)

AO-7 - Pass Details

Date: 20 December 2019
Orbit: 1440 x 1458 km, 101.8° (Epoch: 20 January)

Event Time Altitude Azimuth Distance (km) Brightness Sun altitude
Rises 03:15:18 0° 20° (NNE) 4,565 ? -40.7°
Reaches altitude 10° 03:18:09 10° 23° (NNE) 3,586 ? -40.2°
Maximum altitude 03:26:27 64° 105° (ESE) 1,598 ? -38.9°
Enters shadow 03:28:15 53° 153° (SSE) 1,745 ? -38.5°
